www.pogodaiklimat.ru

Погода и климат >> Архив погоды >> Индонезия >> Таремпа


ПОГОДА в Таремпе

  • Прогноз погоды в Таремпе
  • Монитор погоды в Таремпе

АРХИВ ПОГОДЫ в Таремпе

Время (UTC), дата Ветер
(напр.,м/с)
 
Видим.   Явления Облачность Т
(С)
Тd
(С)
f
(%)
Тe
(С)
Тes
(С)
Комфортность P
(гПа)
Po
(гПа)
Тmin
(С)
Tmax
(С)
R
(мм)
R24
(мм)
S
(см)
09 9.09 Ю 3 900 м дым 4/3 500 м
[Cu hum Ci fib]
+31.8 +23.7 62 +43 +46 опасность
перегрева
1008.7 1008.4 +34.0
12 9.09 ЮВ 2 900 м дым 3/1 500 м
[Cu hum Ci fib]
+29.0 +24.7 78 +41 +41 опасность
перегрева
1009.9 1009.6 +34.0
15 9.09 Ю 3 900 м дым 1/1 500 м
[Cu hum Ci fib]
+27.6 +24.4 83 +39 +39 очень
душно
1011.3 1011.0
18 9.09 Ю 3 900 м дым 3/1 500 м
[Cu hum Ac trans Ci fib]
+26.6 +24.2 87 +37 +37 очень
душно
1010.7 1010.5
21 9.09 штиль 0 900 м дым 3/1 500 м
[Cu hum Ci fib]
+26.0 +24.2 90 +36 +36 очень
душно
1010.4 1010.1
00 10.09 ЮВ 2 800 м дым 6/3 500 м
[Cu med, cong As trans]
+25.6 +23.8 90 +35 +36 очень
душно
1011.9 1011.7 +24.4
03 10.09 Ю 3 900 м дым 4/3 500 м
[Cu hum As trans]
+32.0 +22.7 58 +42 +52 опасность
перегрева
1012.5 1012.2 400
06 10.09 Ю 6 800 м дым 5/4 500 м
[Cu hum As trans]
+32.8 +23.9 60 +45 +49 опасность
перегрева
1010.5 1010.3
09 10.09 Ю 3 900 м дым 5/4 500 м
[Cu hum As trans]
+31.0 +23.8 66 +43 +45 опасность
перегрева
1009.4 1009.1
12 10.09 ЮВ 2 900 м дым 6/3 500 м
[Cu hum As op Ci fib]
+28.6 +24.0 76 +40 +40 очень
душно
1011.4 1011.2 +34.2
15 10.09 Ю 1 900 м дым 5/3 500 м
[Cu hum As op]
+26.6 +23.6 84 +36 +36 очень
душно
1013.2 1012.9
18 10.09 Ю 2 900 м дым 4/3 500 м
[Cu hum As trans]
+25.8 +23.1 85 +34 +34 очень
душно
1012.2 1011.9
21 10.09 Ю 2 900 м дым 3/1 500 м
[Cu hum As trans]
+25.4 +23.4 89 +34 +34 очень
душно
1011.8 1011.5
00 11.09 Ю 3 800 м дым 5/1 500 м
[Cu hum As op]
+25.0 +23.3 90 +33 +34 очень
душно
1012.5 1012.2 +23.8
03 11.09 С 3 800 м дым 4/1 500 м
[Cu hum As trans]
+30.4 +23.1 65 +41 +52 опасность
перегрева
1014.1 1013.9
06 11.09 Ю 5 900 м дым 9/6 500 м
[Cu med, cong As trans]
+30.6 +23.1 64 +41 +43 опасность
перегрева
1011.8 1011.6
09 11.09 Ю 4 1000 м дым 9/6 480 м
[Cu Sc As op]
+31.0 +23.9 66 +43 +43 опасность
перегрева
1010.5 1010.3
12 11.09 Ю 2 1000 м дым 6/4 500 м
[Sc As trans]
+28.0 +23.9 78 +39 +39 очень
душно
1011.5 1011.3 +32.2
15 11.09 Ю 3 1000 м дым 4/3 500 м
[Sc As trans]
+26.2 +23.2 84 +35 +35 очень
душно
1012.8 1012.5
18 11.09 Ю 3 1000 м дым 6/1 500 м
[Cu hum As op]
+25.2 +23.2 89 +34 +34 очень
душно
1012.3 1012.0
21 11.09 Ю 4 1000 м дым 8/3 500 м
[Cu hum As op]
+24.6 +22.6 89 +32 +32 очень
душно
1011.6 1011.4
00 12.09 Ю 4 900 м дым 3/1 500 м
[Cu hum Ci fib]
+24.8 +22.5 87 +32 +34 очень
душно
1013.2 1012.9 +24.2
03 12.09 ЮВ 1 900 м дым 4/3 500 м
[Cu hum As trans Ci fib]
+31.6 +22.5 59 +41 +54 опасность
перегрева
1014.2 1013.9
06 12.09 Ю 3 1000 м дым 3/3 500 м
[Cu hum Ci fib]
+32.6 +23.6 59 +44 +57 опасность
перегрева
1012.1 1011.8
09 12.09 Ю 4 2000 м дым 4/1 500 м
[Cu hum As trans Ci fib]
+31.1 +22.7 61 +41 +44 опасность
перегрева
1009.8 1009.5
12 12.09 Ю 2 2000 м дым 4/1 500 м
[Cu hum As trans Ci fib]
+28.6 +23.7 75 +39 +39 очень
душно
1011.1 1010.9 +33.1
15 12.09 Ю 3 2000 м дым 3/1 500 м
[Cu hum As trans]
+27.6 +23.8 80 +38 +38 очень
душно
1011.9 1011.7
18 12.09 Ю 3 2000 м дым 4/1 500 м
[Cu hum As trans Ci fib]
+26.2 +23.2 84 +35 +35 очень
душно
1011.4 1011.2
21 12.09 Ю 2 2000 м дым 4/3 500 м
[Cu hum As trans]
+26.6 +23.6 84 +36 +36 очень
душно
1010.8 1010.6
00 13.09 Ю 2 1000 м дым 8/3 500 м
[Cu med, cong As op]
+27.8 +23.7 78 +38 +38 очень
душно
1011.5 1011.2 +24.0
03 13.09 Ю 4 1000 м дым 6/1 500 м
[Cu hum As op Ci fib]
+31.2 +24.0 66 +43 +51 опасность
перегрева
1013.1 1012.9
06 13.09 Ю 5 900 м дым 6/1 500 м
[Cu hum As op Ci fib]
+32.2 +23.5 60 +43 +50 опасность
перегрева
1010.8 1010.5
09 13.09 Ю 4 1000 м дым 5/3 500 м
[Cu hum As trans Ci fib]
+30.6 +23.3 65 +41 +43 опасность
перегрева
1009.2 1008.9
12 13.09 ЮВ 1 1000 м дым 6/1 500 м
[Cu hum As op Ci fib]
+28.6 +23.7 75 +39 +39 очень
душно
1010.3 1010.1 +32.6
15 13.09 Ю 2 1000 м дым 4/1 500 м
[Cu hum As trans Ci fib]
+27.8 +23.4 77 +38 +38 очень
душно
1012.1 1011.8
18 13.09 Ю 3 1000 м дым 4/1 500 м
[Cu hum As trans]
+27.6 +23.2 77 +37 +37 очень
душно
1010.1 1009.8
21 13.09 Ю 2 1000 м дым 4/1 500 м
[Cu hum As trans]
+27.1 +23.1 79 +36 +36 очень
душно
1009.5 1009.2
00 14.09 Ю 3 2000 м дым 8/3 480 м
[Sc As op]
+27.4 +22.6 75 +36 +37 очень
душно
1010.7 1010.5 +24.0
03 14.09 Ю 8 2000 м дым 9/3 500 м
[Cu med, cong As op]
+30.2 +23.2 66 +40 +41 очень
душно
1011.7 1011.5
06 14.09 Ю 8 2000 м дым 9/3 500 м
[Cu med, cong As op]
+30.8 +22.5 61 +40 +41 очень
душно
1010.1 1009.9
09 14.09 Ю 6 900 м дым 9/3 500 м
[Cu hum As op]
+30.2 +23.2 66 +40 +41 очень
душно
1008.4 1008.2
12 14.09 Ю 1 1000 м дым 9/3 500 м
[Cu hum As op]
+28.8 +23.6 74 +39 +39 очень
душно
1010.4 1010.1 +32.6
15 14.09 Ю 1 1000 м дым 8/3 500 м
[Cu hum As op]
+28.0 +22.4 72 +37 +37 очень
душно
1011.5 1011.3
18 14.09 штиль 0 1000 м дым 8/3 500 м
[Cu hum As op]
+27.6 +22.9 76 +37 +37 очень
душно
1010.3 1010.0
21 14.09 Ю 1 1000 м дым 6/3 500 м
[Cu hum As op]
+27.0 +23.1 79 +36 +36 очень
душно
1009.2 1008.9
00 15.09 Ю 2 1000 м дым 6/1 500 м
[Cu hum As op]
+26.8 +22.9 79 +36 +37 очень
душно
1010.5 1010.3 +24.2
03 15.09 ЮВ 5 900 м дым 8/3 500 м
[Cu hum As op]
+31.4 +22.5 59 +41 +44 опасность
перегрева
1011.3 1011.1
06 15.09 Ю 4 800 м дым 8/3 500 м
[Cu hum As op]
+32.6 +22.3 55 +42 +46 опасность
перегрева
1009.2 1008.9
09 15.09 Ю 2 2000 м дым 6/1 500 м
[Cu hum As op]
+30.3 +21.9 61 +39 +42 очень
душно
1008.2 1007.9
12 15.09 штиль 0 2000 м дым 5/1 500 м
[Cu hum As op]
+28.2 +22.4 71 +37 +37 очень
душно
1009.5 1009.3 +33.0
15 15.09 Ю 1 2000 м дым 4/1 500 м
[Cu hum As trans]
+27.0 +22.5 76 +35 +35 очень
душно
1010.8 1010.6
18 15.09 ЮВ 2 2000 м дым 6/3 500 м
[Cu hum As op]
+26.2 +22.6 81 +35 +35 очень
душно
1009.8 1009.5
21 15.09 ЮВ 2 2000 м дым 8/3 500 м
[Cu hum As op]
+26.6 +23.0 81 +36 +36 очень
душно
1008.7 1008.4
00 16.09 штиль 0 3000 м дым 6/1 500 м
[Cu hum As op]
+26.6 +23.3 82 +36 +37 очень
душно
1010.1 1009.8 +26.0
03 16.09 Ю 3 3000 м дым 5/1 500 м
[Cu hum As op]
+32.2 +22.9 58 +42 +50 опасность
перегрева
1010.6 1010.3

 

Местоположение метеостанции Таремпа (Индонезия): широта 3.20 долгота 106.25 высота над уровнем моря 3 м.

В архиве по умолчанию представлена погода в Таремпе за последнюю неделю. Архивные данные за месяц целиком и за предыдущие месяцы, начиная с января 2011 года, Вы можете получить, выбрав интересующий диапазон дат из раскрывающегося списка и нажав кнопку "Ввод!".


*Определитесь, кто Вы:
робот инопланетянин человек

Внимание! Время в таблицах - всемирное. Для получения местного времени необходимо прибавить поправку, которая равна 7 ч.

Смотрите также архив погоды в соседних городах и на ближайших метеорологических станциях:

Погода в Ранаи (Индонезия) (251 км)
Погода в Танджунгпинанге (Индонезия) (318 км)
Погода в Сингапуре (Сингапур) (324 км)
Погода в Аэропорту Ханга Надима (Индонезия) (332 км)
Погода в Аэропорту Сеная (Малайзия) (336 км)
Погода в Куантане (Малайзия) (344 км)
Погода в Мерсинге (Малайзия) (367 км)
Погода в Парохе (Индонезия) (374 км)
Погода в Куала-Тренггану (Малайзия) (425 км)
Погода в Аэропорту Дабо (Индонезия) (449 км)

Пояснения к столбцам:

Ветер - указаны скорость ветра в м/с - средняя за 10 мин, порывы в срок и между сроками (в фигурных скобках) и направление, откуда дует ветер: С - северный, СВ - северо-восточный, В - восточный, ЮВ - юго-восточный, Ю - южный, ЮЗ - юго-западный, З - западный, СЗ - северо-западный.
Видимость - горизонтальная дальность видимости в метрах или километрах. При видимости от 1 до 10 км при отсутствии осадков обычно наблюдается дымка, при ухудшении видимости до 1 км и менее - туман. В сухую погоду видимость может ухудшаться дымом, пылью или мглою.
Явления - указаны атмосферные явления, наблюдавшиеся в срок или в последний час перед сроком; фигурными скобками обозначены явления, наблюдавшиеся между сроками (за 1-3 часа до срока); квадратными скобками обозначены град или гололедные отложения с указанием их диаметра в мм.
Облачность - указаны через наклонную черту общая и нижняя облачность в баллах и высота нижней границы облаков в метрах; квадратными скобками обозначены формы облаков: Ci - перистые, Cs - перисто-слоистые, Cc - перисто-кучевые, Ac - высококучевые, As - высокослоистые, Sc - слоисто-кучевые, Ns - слоисто-дождевые, Cu - кучевые, Cb - кучево-дождевые. Подробнее классификацию облаков см. в Атласе облаков (PDF).
T - Температура воздуха - температура, измеренная на высоте 2 м над землей.
Td - Температура точки росы - температура, при понижении до которой содержащийся в воздухе водяной пар достигнет насыщения.
f - Относительная влажность воздуха - влажноcть воздуха, измеренная на высоте 2 м над землей.
Te - Эффективная температура - температура, которую ощущает одетый по сезону человек в тени. Характеристика душности погоды. При расчете учитывается влияние влажности воздуха и скорости ветра на теплоощущения человека.
Tes - Эффективная температура на солнце - температура, которую ощущает человек, с поправкой на солнечный нагрев. Характеристика знойности погоды. Зависит от высоты солнца над горизонтом, облачности и скорости ветра. Ночью, в пасмурную погоду, а также при ветре 12 м/с и более поправка равна нулю.
P - Атмосферное давление - приведенное к уровню моря атмосферное давление.
Po - Атмосферное давление - измеренное на уровне метеостанции атмосферное давление.
Tmin - Минимальная температура - минимум температуры воздуха на высоте 2 м над землей.
Tmax - Максимальная температура - максимум температуры воздуха на высоте 2 м над землей.
R - Количество осадков - Количество выпавших осадков за период времени, мм. При наведении курсора мыши на число - период времени, за который выпало указанное количество осадков.
R24 - Количество осадков - Количество выпавших осадков за 24 часа, мм.
S - Снежный покров - Высота снежного покрова, см. При наведении курсора мыши на число - состояние снежного покрова и степень покрытия местности в баллах.